User: anonymous
Location: Goheenville
(40.9070°N, 79.3720°W)
Time: 17:23:52
(UTC-04:00)
Language:

NOAA 11 - Orbit

View from above orbital plane
View from above orbital plane
View from above satellite
View from above satellite

Ground track
Ground track

The orbit data is extracted from the following two-line orbital elements,

1 19531U 88089A   14107.34670396  .00000094  00000-0  70504-4 0  7646
2 19531 098.6825 187.8335 0012410 111.9974 248.2520 14.15073931319138
Epoch (UTC): 17 April 2014 08:19:15
Eccentricity: 0.0012410
inclination: 98.6825°
perigee height: 833 km
apogee height: 851 km
right ascension of ascending node: 187.8335°
argument of perigee: 111.9974°
revolutions per day: 14.15073931
mean anomaly at epoch: 248.2520°
orbit number at epoch: 31913

The dashed part of the orbit path shows where the satellite is in the earth's shadow,  

DLR